datetime,inflow
1990-09-17,-241.35
1990-09-18,-241.35
1990-09-19,-241.35
1990-09-20,-241.35
1990-09-21,-241.35
1990-09-22,-241.35
1990-09-23,-241.35
1990-09-24,-241.35
1990-09-25,-241.35
1990-09-26,-241.35
1990-09-27,-241.35
1990-09-28,-241.35
1990-09-29,-241.35
1990-09-30,-241.35
1990-10-01,47.9
1990-10-02,24.2
1990-10-03,27.73
1990-10-04,31.26
1990-10-05,34.79
1990-10-06,38.82
1990-10-07,43.17
1990-10-08,46.22
1990-10-09,31.6
1990-10-10,49.75
1990-10-11,42.2
1990-10-12,43.21
1990-10-13,35.14
1990-10-14,38.69
1990-10-15,44.74
1990-10-16,47.75
1990-10-17,44.7
1990-10-18,27.56
1990-10-19,47.71
1990-10-20,59.8
1990-10-21,21.48
1990-10-22,51.71
1990-10-23,45.17
1990-10-24,47.19
1990-10-25,44.69
1990-10-26,45.17
1990-10-27,41.16
1990-10-28,43.66
1990-10-29,39.14
1990-10-30,40.65
1990-10-31,34.1
1990-11-01,39.76
1990-11-02,42.57
1990-11-03,40.67
1990-11-04,38.09
1990-11-05,39.62
1990-11-06,41.65
1990-11-07,35.2
1990-11-08,37.02
1990-11-09,43.58
1990-11-10,38.03
1990-11-11,40.76
1990-11-12,39.88
1990-11-13,40.07
1990-11-14,37.17
1990-11-15,35.32
1990-11-16,37.21
1990-11-17,32.47
1990-11-18,37.21
1990-11-19,35.32
1990-11-20,35.35
1990-11-21,41.17
1990-11-22,34.47
1990-11-23,36.42
1990-11-24,38.28
1990-11-25,37.31
1990-11-26,33.54
1990-11-27,35.45
1990-11-28,36.44
1990-11-29,32.65
1990-11-30,31.62
1990-12-01,35.51
1990-12-02,32.61
1990-12-03,32.65
1990-12-04,32.61
1990-12-05,24.98
1990-12-06,37.38
1990-12-07,28.82
1990-12-08,34.52
1990-12-09,33.64
1990-12-10,32.65
1990-12-11,32.65
1990-12-12,33.64
1990-12-13,32.7
1990-12-14,32.65
1990-12-15,32.65
1990-12-16,32.7
1990-12-17,33.59
1990-12-18,28.84
1990-12-19,28.8
1990-12-20,36.51
1990-12-21,37.49
1990-12-22,25.93
1990-12-23,35.57
1990-12-24,30.8
1990-12-25,33.71
1990-12-26,31.78
1990-12-27,34.65
1990-12-28,26.99
1990-12-29,32.72
1990-12-30,30.8
1990-12-31,31.78
1991-01-01,30.24
1991-01-02,31.04
1991-01-03,30.03
1991-01-04,27.02
1991-01-05,30.55
1991-01-06,28.54
1991-01-07,28.03
1991-01-08,27.02
1991-01-09,29.04
1991-01-10,32.57
1991-01-11,25.01
1991-01-12,26.52
1991-01-13,28.03
1991-01-14,28.03
1991-01-15,27.02
1991-01-16,30.05
1991-01-17,34.59
1991-01-18,36.1
1991-01-19,28.03
1991-01-20,31.56
1991-01-21,26.02
1991-01-22,31.06
1991-01-23,31.56
1991-01-24,30.55
1991-01-25,30.55
1991-01-26,30.05
1991-01-27,30.05
1991-01-28,23.01
1991-01-29,23.01
1991-01-30,23.51
1991-01-31,22.0
1991-02-01,45.63
1991-02-02,15.48
1991-02-03,63.44
1991-02-04,68.48
1991-02-05,34.98
1991-02-06,31.46
1991-02-07,31.46
1991-02-08,34.99
1991-02-09,30.47
1991-02-10,26.44
1991-02-11,30.47
1991-02-12,28.45
1991-02-13,32.49
1991-02-14,31.98
1991-02-15,29.46
1991-02-16,31.98
1991-02-17,32.99
1991-02-18,33.5
1991-02-19,30.98
1991-02-20,31.48
1991-02-21,32.99
1991-02-22,31.76
1991-02-23,32.27
1991-02-24,29.97
1991-02-25,29.46
1991-02-26,28.45
1991-02-27,31.48
1991-02-28,28.45
1991-03-01,32.17
1991-03-02,33.11
1991-03-03,34.0
1991-03-04,33.06
1991-03-05,37.65
1991-03-06,38.59
1991-03-07,34.89
1991-03-08,35.83
1991-03-09,29.46
1991-03-10,38.54
1991-03-11,34.89
1991-03-12,31.28
1991-03-13,36.72
1991-03-14,37.65
1991-03-15,34.0
1991-03-16,34.0
1991-03-17,34.0
1991-03-18,32.17
1991-03-19,33.11
1991-03-20,33.06
1991-03-21,29.46
1991-03-22,37.65
1991-03-23,31.28
1991-03-24,31.24
1991-03-25,32.17
1991-03-26,36.76
1991-03-27,32.17
1991-03-28,31.24
1991-03-29,32.17
1991-03-30,30.35
1991-03-31,34.0
1991-04-01,32.78
1991-04-02,36.49
1991-04-03,80.85
1991-04-04,119.67
1991-04-05,61.21
1991-04-06,42.54
1991-04-07,28.44
1991-04-08,52.13
1991-04-09,48.1
1991-04-10,27.92
1991-04-11,23.38
1991-04-12,12.29
1991-04-13,15.31
1991-04-14,29.95
1991-04-15,16.83
1991-04-16,23.88
1991-04-17,31.95
1991-04-18,38.0
1991-04-19,19.36
1991-04-20,24.91
1991-04-21,33.48
1991-04-22,25.92
1991-04-23,24.91
1991-04-24,42.02
1991-04-25,25.4
1991-04-26,27.92
1991-04-27,24.4
1991-04-28,26.4
1991-04-29,29.93
1991-04-30,33.46
1991-05-01,48.58
1991-05-02,54.12
1991-05-03,45.55
1991-05-04,45.08
1991-05-05,46.56
1991-05-06,55.14
1991-05-07,54.63
1991-05-08,71.28
1991-05-09,101.06
1991-05-10,112.96
1991-05-11,95.09
1991-05-12,75.7
1991-05-13,78.79
1991-05-14,166.89
1991-05-15,105.7
1991-05-16,95.53
1991-05-17,129.23
1991-05-18,169.2
1991-05-19,147.39
1991-05-20,195.2
1991-05-21,269.03
1991-05-22,354.64
1991-05-23,399.85
1991-05-24,391.78
1991-05-25,491.97
1991-05-26,459.66
1991-05-27,626.42
1991-05-28,629.64
1991-05-29,548.25
1991-05-30,675.52
1991-05-31,797.35
1991-06-01,667.04
1991-06-02,591.98
1991-06-03,552.7
1991-06-04,577.83
1991-06-05,425.73
1991-06-06,617.08
1991-06-07,612.79
1991-06-08,717.53
1991-06-09,902.78
1991-06-10,975.45
1991-06-11,1172.45
1991-06-12,1811.38
1991-06-13,1712.04
1991-06-14,1645.35
1991-06-15,1378.87
1991-06-16,555.7
1991-06-17,769.66
1991-06-18,720.24
1991-06-19,661.45
1991-06-20,592.31
1991-06-21,557.61
1991-06-22,500.23
1991-06-23,443.13
1991-06-24,284.81
1991-06-25,257.56
1991-06-26,257.67
1991-06-27,306.09
1991-06-28,276.43
1991-06-29,238.39
1991-06-30,243.75
1991-07-01,210.26
1991-07-02,219.99
1991-07-03,211.65
1991-07-04,210.43
1991-07-05,202.31
1991-07-06,192.72
1991-07-07,176.58
1991-07-08,173.54
1991-07-09,236.15
1991-07-10,348.8
1991-07-11,373.97
1991-07-12,215.66
1991-07-13,151.23
1991-07-14,34.08
1991-07-15,145.07
1991-07-16,129.79
1991-07-17,110.24
1991-07-18,123.45
1991-07-19,144.13
1991-07-20,137.42
1991-07-21,124.41
1991-07-22,147.48
1991-07-23,120.45
1991-07-24,130.85
1991-07-25,145.36
1991-07-26,134.99
1991-07-27,123.88
1991-07-28,109.44
1991-07-29,110.44
1991-07-30,96.04
1991-07-31,93.94
1991-08-01,92.11
1991-08-02,98.06
1991-08-03,126.8
1991-08-04,127.32
1991-08-05,104.62
1991-08-06,107.66
1991-08-07,102.09
1991-08-08,95.56
1991-08-09,91.0
1991-08-10,77.41
1991-08-11,83.96
1991-08-12,89.51
1991-08-13,100.6
1991-08-14,86.99
1991-08-15,81.44
1991-08-16,137.4
1991-08-17,153.54
1991-08-18,90.01
1991-08-19,36.57
1991-08-20,97.07
1991-08-21,104.63
1991-08-22,98.08
1991-08-23,89.51
1991-08-24,92.53
1991-08-25,83.46
1991-08-26,128.83
1991-08-27,83.46
1991-08-28,126.31
1991-08-29,115.72
1991-08-30,80.94
1991-08-31,130.62
1991-09-01,263.44
1991-09-02,89.51
1991-09-03,121.77
1991-09-04,108.16
1991-09-05,67.32
1991-09-06,67.83
1991-09-07,87.99
1991-09-08,131.86
1991-09-09,112.19
1991-09-10,114.21
1991-09-11,132.87
1991-09-12,165.13
1991-09-13,144.46
1991-09-14,122.28
1991-09-15,126.82
1991-09-16,118.75
1991-09-17,107.66
1991-09-18,107.15
1991-09-19,99.59
1991-09-20,93.56
1991-09-21,106.16
1991-09-22,82.47
1991-09-23,78.43
1991-09-24,72.89
1991-09-25,100.9
1991-09-26,78.94
1991-09-27,70.37
1991-09-28,70.87
1991-09-29,74.9
1991-09-30,82.47
1991-10-01,67.67
1991-10-02,60.38
1991-10-03,48.28
1991-10-04,45.26
1991-10-05,46.27
1991-10-06,51.31
1991-10-07,43.75
1991-10-08,45.26
1991-10-09,44.25
1991-10-10,42.74
1991-10-11,42.23
1991-10-12,41.22
1991-10-13,42.22
1991-10-14,33.65
1991-10-15,35.17
1991-10-16,33.14
1991-10-17,36.17
1991-10-18,34.65
1991-10-19,33.14
1991-10-20,34.65
1991-10-21,30.62
1991-10-22,36.17
1991-10-23,33.65
1991-10-24,40.2
1991-10-25,32.13
1991-10-26,39.19
1991-10-27,39.19
1991-10-28,53.3
1991-10-29,33.13
1991-10-30,31.62
1991-10-31,34.14
1991-11-01,36.67
1991-11-02,38.68
1991-11-03,36.67
1991-11-04,43.22
1991-11-05,40.7
1991-11-06,44.73
1991-11-07,45.24
1991-11-08,34.65
1991-11-09,39.7
1991-11-10,43.22
1991-11-11,41.21
1991-11-12,35.65
1991-11-13,33.65
1991-11-14,32.12
1991-11-15,40.7
1991-11-16,43.72
1991-11-17,35.16
1991-11-18,36.16
1991-11-19,33.65
1991-11-20,39.18
1991-11-21,37.67
1991-11-22,36.16
1991-11-23,28.6
1991-11-24,27.59
1991-11-25,46.75
1991-11-26,34.16
1991-11-27,37.18
1991-11-28,37.18
1991-11-29,28.11
1991-11-30,27.1
1991-12-01,22.43
1991-12-02,40.14
1991-12-03,46.23
1991-12-04,22.41
1991-12-05,28.43
1991-12-06,37.3
1991-12-07,26.91
1991-12-08,26.91
1991-12-09,29.81
1991-12-10,26.91
1991-12-11,22.48
1991-12-12,22.41
1991-12-13,19.44
1991-12-14,21.0
1991-12-15,22.53
1991-12-16,22.46
1991-12-17,18.0
1991-12-18,43.51
1991-12-19,84.98
1991-12-20,86.43
1991-12-21,52.12
1991-12-22,29.24
1991-12-23,66.39
1991-12-24,83.63
1991-12-25,34.26
1991-12-26,13.67
1991-12-27,31.69
1991-12-28,22.43
1991-12-29,17.02
1991-12-30,15.25
1991-12-31,18.08
1992-01-01,24.01
1992-01-02,17.24
1992-01-03,15.28
1992-01-04,15.28
1992-01-05,24.86
1992-01-06,19.86
1992-01-07,25.91
1992-01-08,22.44
1992-01-09,15.38
1992-01-10,23.49
1992-01-11,30.05
1992-01-12,17.49
1992-01-13,20.02
1992-01-14,16.49
1992-01-15,21.02
1992-01-16,27.58
1992-01-17,23.14
1992-01-18,18.1
1992-01-19,19.16
1992-01-20,19.71
1992-01-21,20.22
1992-01-22,18.75
1992-01-23,16.23
1992-01-24,14.77
1992-01-25,23.85
1992-01-26,22.38
1992-01-27,17.85
1992-01-28,14.37
1992-01-29,10.39
1992-01-30,17.49
1992-01-31,23.04
1992-02-01,20.65
1992-02-02,19.75
1992-02-03,18.85
1992-02-04,18.85
1992-02-05,16.99
1992-02-06,16.99
1992-02-07,15.13
1992-02-08,16.99
1992-02-09,16.99
1992-02-10,16.99
1992-02-11,18.85
1992-02-12,20.7
1992-02-13,19.75
1992-02-14,22.56
1992-02-15,18.85
1992-02-16,18.85
1992-02-17,19.8
1992-02-18,19.75
1992-02-19,19.7
1992-02-20,17.9
1992-02-21,18.0
1992-02-22,18.95
1992-02-23,19.86
1992-02-24,15.19
1992-02-25,17.09
1992-02-26,18.0
1992-02-27,29.59
1992-02-28,32.68
1992-02-29,-10.11
1992-03-01,14.61
1992-03-02,15.98
1992-03-03,15.98
1992-03-04,14.97
1992-03-05,9.93
1992-03-06,10.94
1992-03-07,13.46
1992-03-08,10.94
1992-03-09,22.03
1992-03-10,15.98
1992-03-11,7.41
1992-03-12,5.9
1992-03-13,7.41
1992-03-14,8.37
1992-03-15,4.39
1992-03-16,3.38
1992-03-17,4.39
1992-03-18,8.37
1992-03-19,7.36
1992-03-20,8.37
1992-03-21,8.92
1992-03-22,5.9
1992-03-23,7.92
1992-03-24,16.99
1992-03-25,12.96
1992-03-26,20.52
1992-03-27,21.53
1992-03-28,21.02
1992-03-29,19.51
1992-03-30,21.02
1992-03-31,20.02
1992-04-01,19.01
1992-04-02,58.48
1992-04-03,49.76
1992-04-04,33.58
1992-04-05,9.48
1992-04-06,23.19
1992-04-07,26.27
1992-04-08,27.83
1992-04-09,28.38
1992-04-10,35.44
1992-04-11,46.53
1992-04-12,51.53
1992-04-13,72.09
1992-04-14,59.39
1992-04-15,47.95
1992-04-16,64.03
1992-04-17,62.52
1992-04-18,67.05
1992-04-19,58.99
1992-04-20,52.94
1992-04-21,54.95
1992-04-22,59.49
1992-04-23,57.52
1992-04-24,50.47
1992-04-25,59.49
1992-04-26,76.08
1992-04-27,99.62
1992-04-28,134.21
1992-04-29,184.88
1992-04-30,247.44
1992-05-01,307.24
1992-05-02,256.57
1992-05-03,330.54
1992-05-04,286.88
1992-05-05,335.14
1992-05-06,363.34
1992-05-07,367.68
1992-05-08,336.22
1992-05-09,336.59
1992-05-10,339.19
1992-05-11,254.42
1992-05-12,154.6
1992-05-13,316.11
1992-05-14,507.17
1992-05-15,425.13
1992-05-16,230.36
1992-05-17,321.79
1992-05-18,450.71
1992-05-19,415.49
1992-05-20,432.43
1992-05-21,631.19
1992-05-22,463.46
1992-05-23,399.89
1992-05-24,351.95
1992-05-25,375.23
1992-05-26,454.5
1992-05-27,447.83
1992-05-28,429.26
1992-05-29,346.91
1992-05-30,315.27
1992-05-31,298.6
1992-06-01,271.81
1992-06-02,259.16
1992-06-03,252.26
1992-06-04,269.47
1992-06-05,261.31
1992-06-06,216.13
1992-06-07,199.72
1992-06-08,187.12
1992-06-09,182.24
1992-06-10,184.65
1992-06-11,176.95
1992-06-12,182.61
1992-06-13,159.11
1992-06-14,155.81
1992-06-15,139.38
1992-06-16,146.81
1992-06-17,148.07
1992-06-18,143.54
1992-06-19,116.78
1992-06-20,120.43
1992-06-21,115.9
1992-06-22,137.03
1992-06-23,110.65
1992-06-24,110.39
1992-06-25,134.31
1992-06-26,131.73
1992-06-27,106.29
1992-06-28,110.36
1992-06-29,101.71
1992-06-30,79.11
1992-07-01,94.93
1992-07-02,90.9
1992-07-03,93.42
1992-07-04,80.82
1992-07-05,80.31
1992-07-06,67.71
1992-07-07,71.74
1992-07-08,73.25
1992-07-09,77.79
1992-07-10,69.73
1992-07-11,63.68
1992-07-12,66.7
1992-07-13,116.11
1992-07-14,88.88
1992-07-15,69.22
1992-07-16,64.68
1992-07-17,62.16
1992-07-18,56.62
1992-07-19,54.1
1992-07-20,53.59
1992-07-21,53.09
1992-07-22,57.57
1992-07-23,71.54
1992-07-24,55.41
1992-07-25,33.73
1992-07-26,47.34
1992-07-27,39.32
1992-07-28,27.33
1992-07-29,39.93
1992-07-30,41.95
1992-07-31,41.95
1992-08-01,28.84
1992-08-02,28.84
1992-08-03,42.95
1992-08-04,20.27
1992-08-05,36.4
1992-08-06,38.92
1992-08-07,38.92
1992-08-08,38.92
1992-08-09,35.9
1992-08-10,37.96
1992-08-11,39.98
1992-08-12,55.36
1992-08-13,43.21
1992-08-14,88.63
1992-08-15,43.76
1992-08-16,33.22
1992-08-17,28.33
1992-08-18,23.8
1992-08-19,36.0
1992-08-20,22.38
1992-08-21,19.06
1992-08-22,28.64
1992-08-23,30.15
1992-08-24,37.71
1992-08-25,28.18
1992-08-26,27.17
1992-08-27,24.15
1992-08-28,28.18
1992-08-29,27.17
1992-08-30,22.13
1992-08-31,9.68
1992-09-01,36.51
1992-09-02,44.86
1992-09-03,30.38
1992-09-04,31.38
1992-09-05,32.06
1992-09-06,43.69
1992-09-07,36.59
1992-09-08,40.45
1992-09-09,53.26
1992-09-10,50.24
1992-09-11,55.55
1992-09-12,55.8
1992-09-13,19.78
1992-09-14,45.02
1992-09-15,56.45
1992-09-16,39.19
1992-09-17,50.37
1992-09-18,28.79
1992-09-19,22.26
1992-09-20,18.37
1992-09-21,21.98
1992-09-22,29.69
1992-09-23,30.15
1992-09-24,18.72
1992-09-25,31.07
1992-09-26,27.48
1992-09-27,28.88
1992-09-28,23.84
1992-09-29,21.4
1992-09-30,17.39
1992-10-01,20.8
1992-10-02,20.52
1992-10-03,12.45
1992-10-04,23.54
1992-10-05,26.62
1992-10-06,21.53
1992-10-07,22.08
1992-10-08,26.12
1992-10-09,18.5
1992-10-10,17.49
1992-10-11,20.02
1992-10-12,18.5
1992-10-13,18.0
1992-10-14,20.52
1992-10-15,18.0
1992-10-16,15.98
1992-10-17,19.01
1992-10-18,18.0
1992-10-19,18.0
1992-10-20,18.0
1992-10-21,18.0
1992-10-22,19.01
1992-10-23,20.52
1992-10-24,20.02
1992-10-25,19.51
1992-10-26,25.56
1992-10-27,25.56
1992-10-28,26.57
1992-10-29,40.18
1992-10-30,25.56
1992-10-31,42.2
1992-11-01,31.88
1992-11-02,27.28
1992-11-03,33.04
1992-11-04,26.56
1992-11-05,25.68
1992-11-06,30.33
1992-11-07,28.36
1992-11-08,26.56
1992-11-09,25.59
1992-11-10,27.48
1992-11-11,21.85
1992-11-12,24.71
1992-11-13,26.69
1992-11-14,26.55
1992-11-15,27.55
1992-11-16,21.87
1992-11-17,24.71
1992-11-18,21.89
1992-11-19,25.69
1992-11-20,23.78
1992-11-21,20.87
1992-11-22,20.94
1992-11-23,22.8
1992-11-24,20.94
1992-11-25,20.9
1992-11-26,19.96
1992-11-27,20.94
1992-11-28,20.9
1992-11-29,22.85
1992-11-30,19.96
1992-12-01,20.9
1992-12-02,20.94
1992-12-03,21.87
1992-12-04,25.69
1992-12-05,17.08
1992-12-06,18.06
1992-12-07,19.96
1992-12-08,19.96
1992-12-09,19.96
1992-12-10,25.77
1992-12-11,20.9
1992-12-12,25.69
1992-12-13,25.69
1992-12-14,25.69
1992-12-15,18.99
1992-12-16,21.87
1992-12-17,21.87
1992-12-18,26.62
1992-12-19,20.94
1992-12-20,22.88
1992-12-21,22.88
1992-12-22,21.87
1992-12-23,20.97
1992-12-24,19.96
1992-12-25,18.99
1992-12-26,17.16
1992-12-27,18.03
1992-12-28,19.96
1992-12-29,25.72
1992-12-30,22.85
1992-12-31,22.88
1993-01-01,20.9
1993-01-02,23.78
1993-01-03,25.69
1993-01-04,21.87
1993-01-05,21.88
1993-01-06,19.96
1993-01-07,20.9
1993-01-08,21.88
1993-01-09,21.88
1993-01-10,26.7
1993-01-11,24.74
1993-01-12,20.95
1993-01-13,24.74
1993-01-14,24.74
1993-01-15,24.78
1993-01-16,24.74
1993-01-17,26.7
1993-01-18,22.82
1993-01-19,24.74
1993-01-20,21.88
1993-01-21,22.86
1993-01-22,22.82
1993-01-23,21.88
1993-01-24,20.95
1993-01-25,20.9
1993-01-26,20.95
1993-01-27,21.88
1993-01-28,18.98
1993-01-29,18.05
1993-01-30,19.96
1993-01-31,16.13
1993-02-01,19.03
1993-02-02,18.98
1993-02-03,17.11
1993-02-04,18.05
1993-02-05,18.98
1993-02-06,17.11
1993-02-07,18.05
1993-02-08,19.03
1993-02-09,19.96
1993-02-10,21.84
1993-02-11,18.09
1993-02-12,18.05
1993-02-13,18.98
1993-02-14,19.96
1993-02-15,17.11
1993-02-16,17.06
1993-02-17,18.05
1993-02-18,18.05
1993-02-19,19.06
1993-02-20,21.96
1993-02-21,22.89
1993-02-22,21.91
1993-02-23,24.81
1993-02-24,23.87
1993-02-25,25.74
1993-02-26,23.83
1993-02-27,19.96
1993-02-28,20.97
1993-03-01,14.59
1993-03-02,18.96
1993-03-03,16.94
1993-03-04,16.94
1993-03-05,17.44
1993-03-06,16.94
1993-03-07,18.96
1993-03-08,18.96
1993-03-09,16.94
1993-03-10,16.44
1993-03-11,18.96
1993-03-12,16.44
1993-03-13,13.91
1993-03-14,16.44
1993-03-15,18.96
1993-03-16,17.44
1993-03-17,14.92
1993-03-18,27.02
1993-03-19,19.96
1993-03-20,19.96
1993-03-21,19.96
1993-03-22,22.99
1993-03-23,21.98
1993-03-24,18.96
1993-03-25,20.97
1993-03-26,18.0
1993-03-27,24.5
1993-03-28,26.07
1993-03-29,29.09
1993-03-30,18.96
1993-03-31,15.98
1993-04-01,13.97
1993-04-02,24.55
1993-04-03,25.56
1993-04-04,17.49
1993-04-05,14.97
1993-04-06,8.92
1993-04-07,5.9
1993-04-08,5.9
1993-04-09,7.92
1993-04-10,12.96
1993-04-11,12.45
1993-04-12,17.44
1993-04-13,10.99
1993-04-14,13.41
1993-04-15,16.94
1993-04-16,20.97
1993-04-17,13.46
1993-04-18,25.56
1993-04-19,32.57
1993-04-20,33.43
1993-04-21,42.0
1993-04-22,50.01
1993-04-23,64.58
1993-04-24,62.06
1993-04-25,54.0
1993-04-26,60.5
1993-04-27,63.07
1993-04-28,78.2
1993-04-29,139.8
1993-04-30,88.48
1993-05-01,59.72
1993-05-02,64.11
1993-05-03,98.05
1993-05-04,116.01
1993-05-05,117.18
1993-05-06,81.58
1993-05-07,67.11
1993-05-08,67.24
1993-05-09,64.74
1993-05-10,72.38
1993-05-11,105.95
1993-05-12,164.71
1993-05-13,216.65
1993-05-14,280.02
1993-05-15,238.93
1993-05-16,404.57
1993-05-17,650.72
1993-05-18,555.76
1993-05-19,633.35
1993-05-20,678.74
1993-05-21,707.12
1993-05-22,801.16
1993-05-23,788.96
1993-05-24,864.4
1993-05-25,1003.25
1993-05-26,1119.04
1993-05-27,1236.0
1993-05-28,1301.54
1993-05-29,1118.71
1993-05-30,985.02
1993-05-31,1031.29
1993-06-01,1150.86
1993-06-02,1166.62
1993-06-03,978.28
1993-06-04,659.45
1993-06-05,651.89
1993-06-06,588.08
1993-06-07,570.29
1993-06-08,496.3
1993-06-09,433.8
1993-06-10,426.09
1993-06-11,495.88
1993-06-12,622.08
1993-06-13,935.39
1993-06-14,959.83
1993-06-15,1038.46
1993-06-16,1195.36
1993-06-17,1056.92
1993-06-18,773.43
1993-06-19,828.64
1993-06-20,1031.53
1993-06-21,1072.68
1993-06-22,1017.05
1993-06-23,948.63
1993-06-24,624.2
1993-06-25,550.81
1993-06-26,707.02
1993-06-27,807.0
1993-06-28,1073.24
1993-06-29,815.2
1993-06-30,678.11
1993-07-01,642.69
1993-07-02,693.04
1993-07-03,462.14
1993-07-04,462.1
1993-07-05,407.86
1993-07-06,335.82
1993-07-07,319.6
1993-07-08,318.45
1993-07-09,270.86
1993-07-10,304.14
1993-07-11,302.52
1993-07-12,299.44
1993-07-13,300.98
1993-07-14,271.01
1993-07-15,279.4
1993-07-16,258.98
1993-07-17,236.89
1993-07-18,222.86
1993-07-19,221.96
1993-07-20,184.39
1993-07-21,136.13
1993-07-22,139.31
1993-07-23,179.65
1993-07-24,318.88
1993-07-25,355.6
1993-07-26,337.8
1993-07-27,404.68
1993-07-28,262.92
1993-07-29,225.76
1993-07-30,224.33
1993-07-31,232.61
1993-08-01,203.59
1993-08-02,81.67
1993-08-03,87.63
1993-08-04,176.05
1993-08-05,178.05
1993-08-06,154.7
1993-08-07,151.66
1993-08-08,156.29
1993-08-09,169.82
1993-08-10,175.45
1993-08-11,158.39
1993-08-12,175.45
1993-08-13,169.31
1993-08-14,141.25
1993-08-15,124.69
1993-08-16,101.0
1993-08-17,97.3
1993-08-18,99.41
1993-08-19,98.95
1993-08-20,112.86
1993-08-21,132.96
1993-08-22,140.81
1993-08-23,105.04
1993-08-24,100.51
1993-08-25,92.68
1993-08-26,87.57
1993-08-27,91.24
1993-08-28,92.68
1993-08-29,77.26
1993-08-30,68.91
1993-08-31,30.09
1993-09-01,66.77
1993-09-02,74.55
1993-09-03,71.45
1993-09-04,63.67
1993-09-05,63.67
1993-09-06,66.84
1993-09-07,63.67
1993-09-08,63.75
1993-09-09,60.57
1993-09-10,55.96
1993-09-11,55.96
1993-09-12,54.45
1993-09-13,46.67
1993-09-14,46.67
1993-09-15,48.18
1993-09-16,54.45
1993-09-17,63.67
1993-09-18,60.65
1993-09-19,65.26
1993-09-20,60.57
1993-09-21,54.45
1993-09-22,52.86
1993-09-23,43.06
1993-09-24,87.5
1993-09-25,67.82
1993-09-26,47.72
1993-09-27,63.45
1993-09-28,101.03
1993-09-29,102.19
1993-09-30,66.19
1993-10-01,38.22
1993-10-02,41.89
1993-10-03,40.46
1993-10-04,41.17
1993-10-05,41.01
1993-10-06,31.81
1993-10-07,66.63
1993-10-08,57.09
1993-10-09,48.59
1993-10-10,44.22
1993-10-11,50.74
1993-10-12,60.69
1993-10-13,58.34
1993-10-14,57.89
1993-10-15,59.95
1993-10-16,54.1
1993-10-17,51.95
1993-10-18,62.57
1993-10-19,61.45
1993-10-20,37.34
1993-10-21,52.24
1993-10-22,52.76
1993-10-23,58.08
1993-10-24,45.3
1993-10-25,41.96
1993-10-26,45.08
1993-10-27,44.04
1993-10-28,46.92
1993-10-29,44.45
1993-10-30,31.68
1993-10-31,48.87
1993-11-01,47.5
1993-11-02,48.4
1993-11-03,43.36
1993-11-04,31.76
1993-11-05,31.76
1993-11-06,24.7
1993-11-07,27.22
1993-11-08,24.2
1993-11-09,35.29
1993-11-10,34.28
1993-11-11,35.8
1993-11-12,35.8
1993-11-13,32.77
1993-11-14,33.27
1993-11-15,20.67
1993-11-16,14.12
1993-11-17,27.73
1993-11-18,26.22
1993-11-19,26.72
1993-11-20,25.21
1993-11-21,26.72
1993-11-22,25.21
1993-11-23,30.25
1993-11-24,27.73
1993-11-25,25.21
1993-11-26,28.74
1993-11-27,28.23
1993-11-28,29.24
1993-11-29,30.25
1993-11-30,27.73
1993-12-01,25.57
1993-12-02,24.78
1993-12-03,30.31
1993-12-04,25.66
1993-12-05,25.61
1993-12-06,23.72
1993-12-07,26.58
1993-12-08,27.55
1993-12-09,26.53
1993-12-10,26.67
1993-12-11,27.52
1993-12-12,28.62
1993-12-13,21.93
1993-12-14,35.71
1993-12-15,29.61
1993-12-16,30.5
1993-12-17,28.64
1993-12-18,22.95
1993-12-19,25.85
1993-12-20,23.97
1993-12-21,21.16
1993-12-22,21.16
1993-12-23,24.98
1993-12-24,23.05
1993-12-25,21.11
1993-12-26,24.08
1993-12-27,20.35
1993-12-28,26.05
1993-12-29,21.26
1993-12-30,19.39
1993-12-31,23.18
1994-01-01,20.35
1994-01-02,24.12
1994-01-03,23.24
1994-01-04,18.58
1994-01-05,24.15
1994-01-06,25.1
1994-01-07,26.01
1994-01-08,24.19
1994-01-09,25.05
1994-01-10,26.07
1994-01-11,24.21
1994-01-12,17.26
1994-01-13,13.68
1994-01-14,20.17
1994-01-15,22.96
1994-01-16,20.17
1994-01-17,19.22
1994-01-18,21.17
1994-01-19,20.17
1994-01-20,19.33
1994-01-21,20.1
1994-01-22,19.22
1994-01-23,17.31
1994-01-24,21.17
1994-01-25,19.27
1994-01-26,20.17
1994-01-27,15.46
1994-01-28,18.21
1994-01-29,17.42
1994-01-30,16.47
1994-01-31,17.42
1994-02-01,16.47
1994-02-02,17.37
1994-02-03,16.47
1994-02-04,13.72
1994-02-05,16.47
1994-02-06,13.72
1994-02-07,15.53
1994-02-08,22.01
1994-02-09,19.27
1994-02-10,19.22
1994-02-11,22.01
1994-02-12,21.11
1994-02-13,21.07
1994-02-14,21.11
1994-02-15,20.17
1994-02-16,19.22
1994-02-17,18.32
1994-02-18,20.17
1994-02-19,22.96
1994-02-20,20.17
1994-02-21,19.22
1994-02-22,21.11
1994-02-23,18.32
1994-02-24,20.17
1994-02-25,17.37
1994-02-26,17.42
1994-02-27,17.37
1994-02-28,20.17
1994-03-01,17.76
1994-03-02,18.65
1994-03-03,15.63
1994-03-04,17.14
1994-03-05,17.65
1994-03-06,18.15
1994-03-07,17.65
1994-03-08,18.15
1994-03-09,15.63
1994-03-10,22.69
1994-03-11,15.12
1994-03-12,17.14
1994-03-13,16.64
1994-03-14,21.17
1994-03-15,15.63
1994-03-16,15.63
1994-03-17,21.68
1994-03-18,16.64
1994-03-19,16.64
1994-03-20,19.16
1994-03-21,17.14
1994-03-22,15.63
1994-03-23,16.64
1994-03-24,10.08
1994-03-25,10.59
1994-03-26,9.58
1994-03-27,8.57
1994-03-28,12.1
1994-03-29,10.08
1994-03-30,7.5600000000000005
1994-03-31,10.59
1994-04-01,12.6
1994-04-02,9.07
1994-04-03,7.5600000000000005
1994-04-04,5.04
1994-04-05,6.05
1994-04-06,5.04
1994-04-07,7.06
1994-04-08,8.07
1994-04-09,5.55
1994-04-10,3.02
1994-04-11,13.61
1994-04-12,10.08
1994-04-13,18.15
1994-04-14,27.73
1994-04-15,24.7
1994-04-16,22.69
1994-04-17,29.24
1994-04-18,85.71
1994-04-19,59.49
1994-04-20,64.53
1994-04-21,79.15
1994-04-22,129.06
1994-04-23,152.76
1994-04-24,146.71
1994-04-25,105.87
1994-04-26,97.81
1994-04-27,93.77
1994-04-28,84.19
1994-04-29,78.14
1994-04-30,67.56
1994-05-01,65.9
1994-05-02,60.9
1994-05-03,47.81
1994-05-04,70.54
1994-05-05,79.22
1994-05-06,132.48
1994-05-07,176.62
1994-05-08,181.74
1994-05-09,204.42
1994-05-10,247.89
1994-05-11,294.29
1994-05-12,368.41
1994-05-13,511.24
1994-05-14,589.04
1994-05-15,644.69
1994-05-16,655.09
1994-05-17,682.52
1994-05-18,541.6
1994-05-19,422.79
1994-05-20,378.12
1994-05-21,354.99
1994-05-22,319.5
1994-05-23,386.21
1994-05-24,477.6
1994-05-25,443.43
1994-05-26,543.46
1994-05-27,583.02
1994-05-28,512.48
1994-05-29,610.36
1994-05-30,658.05
1994-05-31,639.72
1994-06-01,645.38
1994-06-02,519.04
1994-06-03,486.14
1994-06-04,479.79
1994-06-05,468.9
1994-06-06,430.35
1994-06-07,396.27
1994-06-08,341.19
1994-06-09,284.56
1994-06-10,257.38
1994-06-11,252.05
1994-06-12,252.66
1994-06-13,247.96
1994-06-14,225.05
1994-06-15,215.96
1994-06-16,189.07
1994-06-17,175.08
1994-06-18,180.58
1994-06-19,154.48
1994-06-20,162.42
1994-06-21,139.85
1994-06-22,163.33
1994-06-23,197.04
1994-06-24,159.85
1994-06-25,132.04
1994-06-26,119.07
1994-06-27,111.86
1994-06-28,101.05
1994-06-29,96.44
1994-06-30,88.08
1994-07-01,76.06
1994-07-02,67.78
1994-07-03,69.96
1994-07-04,84.02
1994-07-05,76.21
1994-07-06,74.62
1994-07-07,62.26
1994-07-08,62.26
1994-07-09,65.37
1994-07-10,57.56
1994-07-11,56.05
1994-07-12,60.75
1994-07-13,51.34